This is the latest recevied weather packets stored in our database for station/object KN6DHD. If no packets are shown the sender has not sent any weather packets the latest 10 day(s).
| Time | Temp. | Humidity | Pressure | Rain* | Wind** | Luminosity | Snow |
|---|---|---|---|---|---|---|---|
| 1777573401 | 21.67° C | 58% | 1014.6 hPa | 0 mm | - | 52 W/m² | - |
| 1777573097 | 21.67° C | 60% | 1014.7 hPa | 0 mm | - | 52 W/m² | - |
| 1777572794 | 21.11° C | 59% | 1014.7 hPa | 0 mm | - | 50 W/m² | - |
| 1777572489 | 21.11° C | 60% | 1014.7 hPa | 0 mm | - | 55 W/m² | - |
| 1777572185 | 21.11° C | 61% | 1014.8 hPa | 0 mm | - | 53 W/m² | - |
| 1777571880 | 20° C | 64% | 1015 hPa | 0 mm | - | 51 W/m² | - |
| 1777571576 | 20° C | 66% | 1014.7 hPa | 0 mm | - | 49 W/m² | - |
| 1777571273 | 20° C | 66% | 1014.6 hPa | 0 mm | - | 49 W/m² | - |
| 1777570969 | 19.44° C | 66% | 1014.8 hPa | 0 mm | - | 48 W/m² | - |
| 1777570665 | 18.89° C | 67% | 1014.9 hPa | 0 mm | - | 48 W/m² | - |
| 1777570362 | 18.89° C | 68% | 1015.2 hPa | 0 mm | - | 50 W/m² | - |
| 1777570057 | 18.89° C | 68% | 1015.2 hPa | 0 mm | - | 51 W/m² | - |
| 1777569753 | 18.33° C | 70% | 1015.2 hPa | 0 mm | - | 145 W/m² | - |
| 1777569449 | 18.33° C | 69% | 1015.1 hPa | 0 mm | - | 47 W/m² | - |
| 1777569146 | 18.33° C | 71% | 1014.9 hPa | 0 mm | - | 46 W/m² | - |
| 1777568843 | 17.78° C | 73% | 1015.2 hPa | 0 mm | - | 46 W/m² | - |
| 1777568540 | 17.78° C | 73% | 1015 hPa | 0 mm | - | 46 W/m² | - |
| 1777568236 | 17.22° C | 74% | 1015.1 hPa | 0 mm | - | 46 W/m² | - |
| 1777567934 | 17.22° C | 74% | 1015.3 hPa | 0 mm | - | 45 W/m² | - |
| 1777567630 | 17.22° C | 74% | 1015.3 hPa | 0 mm | - | 45 W/m² | - |
| 1777567327 | 16.67° C | 76% | 1015.1 hPa | 0 mm | - | 44 W/m² | - |
| 1777567025 | 16.67° C | 76% | 1015 hPa | 0 mm | - | 44 W/m² | - |
| 1777566723 | 16.11° C | 76% | 1015.1 hPa | 0 mm | - | 44 W/m² | - |
| 1777566421 | 16.11° C | 77% | 1015.2 hPa | 0 mm | - | 43 W/m² | - |
| 1777566118 | 16.11° C | 77% | 1015 hPa | 0 mm | - | 44 W/m² | - |
* Rain latest hour (hover to see other rain measurements)
** Current wind speed in m/s (hover to see current wind gust speed)